TimeCDT,TemperatureF,Dew PointF,Humidity,Sea Level PressureIn,VisibilityMPH,Wind Direction,Wind SpeedMPH,Gust SpeedMPH,PrecipitationIn,Events,Conditions,WindDirDegrees,DateUTC
12:52 AM,60.1,53.1,78,30.11,10.0,SE,5.8,-,N/A,,Mostly Cloudy,140,2013-09-18 05:52:00
1:52 AM,57.9,52.0,81,30.11,10.0,SE,4.6,-,N/A,,Partly Cloudy,140,2013-09-18 06:52:00
2:52 AM,57.9,53.1,84,30.10,10.0,SE,4.6,-,N/A,,Mostly Cloudy,140,2013-09-18 07:52:00
3:52 AM,59.0,53.1,81,30.09,10.0,SE,3.5,-,N/A,,Mostly Cloudy,130,2013-09-18 08:52:00
4:52 AM,59.0,53.1,81,30.08,10.0,SE,4.6,-,N/A,,Overcast,140,2013-09-18 09:52:00
5:52 AM,60.1,54.0,80,30.08,10.0,SE,4.6,-,N/A,,Mostly Cloudy,140,2013-09-18 10:52:00
6:52 AM,60.1,54.0,80,30.08,10.0,SE,6.9,-,N/A,,Overcast,130,2013-09-18 11:52:00
7:52 AM,61.0,55.0,81,30.08,9.0,SE,6.9,-,N/A,,Mostly Cloudy,140,2013-09-18 12:52:00
8:52 AM,64.9,57.0,75,30.07,10.0,SSE,9.2,-,N/A,,Clear,150,2013-09-18 13:52:00
9:52 AM,69.1,57.9,68,30.07,10.0,SSE,10.4,-,N/A,,Clear,160,2013-09-18 14:52:00
10:52 AM,73.0,61.0,66,30.06,10.0,South,10.4,-,N/A,,Scattered Clouds,180,2013-09-18 15:52:00
11:52 AM,75.9,63.0,64,30.04,10.0,South,10.4,-,N/A,,Partly Cloudy,180,2013-09-18 16:52:00
12:52 PM,78.1,64.0,62,30.01,10.0,South,12.7,18.4,N/A,,Partly Cloudy,180,2013-09-18 17:52:00
1:52 PM,79.0,64.9,62,29.99,10.0,South,10.4,-,N/A,,Partly Cloudy,180,2013-09-18 18:52:00
2:32 PM,78.8,64.4,61,29.99,10.0,SW,5.8,-,N/A,Thunderstorm,Overcast,230,2013-09-18 19:32:00
2:52 PM,75.9,66.0,71,29.99,9.0,NW,6.9,-,N/A,Thunderstorm,Thunderstorm,310,2013-09-18 19:52:00
3:02 PM,73.4,66.2,78,29.98,1.8,SSW,4.6,-,0.06,Rain-Thunderstorm,Heavy Thunderstorms and Rain,210,2013-09-18 20:02:00
3:13 PM,71.6,68.0,88,29.98,3.0,South,4.6,-,0.09,Rain-Thunderstorm,Light Thunderstorms and Rain,170,2013-09-18 20:13:00
3:52 PM,70.0,66.0,87,30.00,4.0,WSW,10.4,-,0.11,Rain-Thunderstorm,Light Rain,240,2013-09-18 20:52:00
4:52 PM,68.0,64.9,90,29.94,10.0,South,5.8,-,0.02,,Mostly Cloudy,170,2013-09-18 21:52:00
5:52 PM,71.1,66.0,84,29.93,10.0,South,6.9,-,N/A,,Partly Cloudy,170,2013-09-18 22:52:00
6:52 PM,71.1,66.0,84,29.94,10.0,ESE,5.8,-,N/A,,Overcast,120,2013-09-18 23:52:00
7:52 PM,69.1,66.0,90,29.95,9.0,SE,6.9,-,N/A,,Clear,130,2013-09-19 00:52:00
8:52 PM,68.0,64.9,90,29.96,8.0,SE,8.1,-,N/A,,Clear,130,2013-09-19 01:52:00
9:52 PM,68.0,64.9,90,29.96,9.0,SE,8.1,-,N/A,,Mostly Cloudy,140,2013-09-19 02:52:00
10:52 PM,69.1,64.9,87,29.96,8.0,SSE,5.8,-,N/A,,Mostly Cloudy,150,2013-09-19 03:52:00
11:52 PM,69.1,66.0,90,29.96,8.0,SE,6.9,-,N/A,,Mostly Cloudy,140,2013-09-19 04:52:00